TimeCDT,TemperatureF,Dew PointF,Humidity,Sea Level PressureIn,VisibilityMPH,Wind Direction,Wind SpeedMPH,Gust SpeedMPH,PrecipitationIn,Events,Conditions,WindDirDegrees,DateUTC
12:53 AM,55.9,48.0,75,29.93,10.0,South,5.8,-,N/A,,Clear,190,2012-10-04 05:53:00
1:53 AM,55.0,48.0,77,29.91,10.0,South,4.6,-,N/A,,Clear,180,2012-10-04 06:53:00
2:53 AM,55.9,48.9,77,29.89,10.0,South,6.9,-,N/A,,Clear,180,2012-10-04 07:53:00
3:53 AM,59.0,50.0,72,29.88,10.0,South,10.4,-,N/A,,Clear,180,2012-10-04 08:53:00
4:53 AM,57.9,50.0,75,29.86,10.0,South,13.8,19.6,N/A,,Clear,170,2012-10-04 09:53:00
5:53 AM,57.9,50.0,75,29.86,10.0,SSE,12.7,-,N/A,,Clear,160,2012-10-04 10:53:00
6:53 AM,57.9,48.0,70,29.89,10.0,South,10.4,-,N/A,,Mostly Cloudy,190,2012-10-04 11:53:00
7:53 AM,57.9,44.1,60,29.91,10.0,West,15.0,20.7,N/A,,Partly Cloudy,280,2012-10-04 12:53:00
8:53 AM,53.1,41.0,64,29.94,10.0,West,15.0,21.9,N/A,,Mostly Cloudy,280,2012-10-04 13:53:00
9:53 AM,54.0,39.9,59,29.96,10.0,West,15.0,-,N/A,,Scattered Clouds,280,2012-10-04 14:53:00
10:53 AM,57.0,39.0,51,29.98,10.0,West,15.0,19.6,N/A,,Clear,260,2012-10-04 15:53:00
11:53 AM,59.0,37.9,46,29.99,10.0,West,13.8,-,N/A,,Clear,270,2012-10-04 16:53:00
12:53 PM,59.0,36.0,42,29.99,10.0,West,21.9,27.6,N/A,,Clear,270,2012-10-04 17:53:00
1:53 PM,57.9,34.0,41,30.01,10.0,WNW,17.3,25.3,N/A,,Partly Cloudy,290,2012-10-04 18:53:00
2:53 PM,60.1,33.1,36,30.02,10.0,West,19.6,28.8,N/A,,Clear,270,2012-10-04 19:53:00
3:53 PM,57.0,32.0,39,30.04,10.0,WNW,18.4,27.6,N/A,,Clear,290,2012-10-04 20:53:00
4:53 PM,55.0,32.0,42,30.05,10.0,WNW,18.4,25.3,N/A,,Clear,290,2012-10-04 21:53:00
5:53 PM,52.0,30.9,45,30.08,10.0,West,20.7,-,N/A,,Clear,270,2012-10-04 22:53:00
6:53 PM,48.9,30.9,50,30.10,10.0,WNW,19.6,23.0,N/A,,Clear,290,2012-10-04 23:53:00
7:53 PM,46.9,30.9,54,30.12,10.0,West,11.5,-,N/A,,Clear,280,2012-10-05 00:53:00
8:53 PM,46.0,30.0,54,30.14,10.0,West,20.7,26.5,N/A,,Clear,280,2012-10-05 01:53:00
9:53 PM,46.0,28.9,51,30.14,10.0,West,19.6,31.1,N/A,,Mostly Cloudy,280,2012-10-05 02:53:00
10:53 PM,45.0,28.9,53,30.14,10.0,NW,17.3,26.5,N/A,,Scattered Clouds,310,2012-10-05 03:53:00
11:53 PM,45.0,28.0,52,30.14,10.0,WNW,16.1,20.7,N/A,,Clear,290,2012-10-05 04:53:00